Regional Weather Roundup
Issued by NWS Wakefield, VA

Home | Current Version | Previous Version | Graphics & Text | Print | Product List | Glossary On
Versions: 1 2 3 4 5 6 7 8 9 10 11 12 13 14 15 16 17 18 19 20 21 22 23 24 25 26 27 28 29 30 31 32 33 34 35 36 37 38 39 40 41 42 43 44 45 46 47 48 49 50
000
ASUS41 KAKQ 300615
RWRAKQ

REGIONAL WEATHER ROUNDUP
NATIONAL WEATHER SERVICE WAKEFIELD VA
200 AM EDT TUE MAY 30 2017

Note: "fair" indicates few or no clouds below 12,000 feet with no
significant weather and/or obstructions to visibility. * = Denotes
station may not report precipitation (e.g., rain,snow,etc.),
thunder or fog.

VAZ042-051-052>054-056-300700-
NORTHERN VIRGINIA

CITY           SKY/WX    TMP DP  RH WIND       PRES   REMARKS
WASH NATIONAL  CLOUDY    68  64  87 SE9       30.05R
DULLES         CLOUDY    68  64  87 SE12      30.03R
FORT BELVOIR   CLOUDY    67  63  87 SE7       30.03R
QUANTICO       CLOUDY    68  67  96 SE14      30.03S
FREDERICKSBRG* CLOUDY    68  68 100 E3        30.02R
STAFFORD*      CLOUDY    67  67 100 SE7       30.06S
WARRENTON      CLOUDY    69  64  85 E3        30.01S
CULPEPER*      CLOUDY    65  64  97 CALM      30.02F
MANASSAS*      CLOUDY    68  65  90 SE9       30.02S
LEESBURG*      CLOUDY    70  68  94 S5        30.03F
WINCHESTER     PTCLDY    59  55  88 CALM      30.01S
FRONT ROYAL*   MOCLDY    61  59  94 S3        30.00F
LURAY*         MOCLDY    61  61 100 CALM      30.03R
$$

VAZ048-049-060>072-079>083-300700-
CENTRAL AND SOUTH CENTRAL VIRGINIA

CITY           SKY/WX    TMP DP  RH WIND       PRES   REMARKS
RICHMOND       CLOUDY    69  66  90 E7        30.03R
CHESTERFIELD*  NOT AVBL
PETERSBURG*    CLOUDY    70  68  95 CALM      30.02R
HANOVER        CLOUDY    68  63  84 E5        30.03S
TAPPAHANNOCK*  CLOUDY    65  65 100 E3        30.06R
QUINTON*       CLOUDY    66  66 100 S7        30.03R
CHARLOTTSVILLE CLOUDY    65  61  87 CALM      30.01S
GORDONSVILLE*  MOCLDY    64  64 100 CALM      30.01S
ORANGE*        CLOUDY    63  63 100 CALM      30.02S
LOUISA*        MOCLDY    72  70  94 E5        30.00S
BUMPASS*       CLOUDY    68  68  99 E6        30.01F
FARMVILLE*     CLOUDY    69  58  68 W3        29.99F
CREWE*         FAIR      69  65  86 CALM      30.00S
FORT PICKETT*  FAIR      69  65  88 CALM      30.00R
CHASE CITY*    FAIR      69  67  94 CALM      30.01S
CLARKSVILLE*   FAIR      66  66 100 CALM      29.99F
SOUTH HILL*    CLOUDY    67  67 100 CALM      30.06F
LAWRENCEVILLE* FAIR      67  65  94 CALM      30.00F
EMPORIA*       CLOUDY    68  64  88 CALM      30.02F
$$

VAZ088>098-300700-
SOUTHEAST VIRGINIA

CITY           SKY/WX    TMP DP  RH WIND       PRES   REMARKS
NORFOLK        CLOUDY    69  65  86 E6        30.04R
VIRGINIA BEACH CLOUDY    67  63  87 SE8       30.03S
NORFOLK NAVAL  CLOUDY    69  64  84 NE5       30.05
WEST POINT*    CLOUDY    66  64  93 SE9       30.06R
SALUDA*        CLOUDY    64  63  97 SE7       30.05R
NEWPORT NEWS   LGT RAIN  67  65  93 E10       30.04S
LANGLEY AFB    LGT RAIN  68  66  94 E12       30.03S
FORT EUSTIS    LGT RAIN  68  64  89 E5        30.02R
WILLIAMSBURG*  MOCLDY    68  68 100 E6        30.05R
HR EXEC AP*    FAIR      68  64  88 SE5       30.01S
FRANKLIN*      CLOUDY    69  67  93 E3        30.03F
US460-WAKEFLD  LGT RAIN  69  68  96 VRB3      30.02S FOG
$$

VAZ020-022-025-037-045-300700-
WEST CENTRAL AND SOUTHWEST VIRGINIA

CITY           SKY/WX    TMP DP  RH WIND       PRES   REMARKS
STAUNTON*      CLOUDY    59  57  93 CALM      30.06R
WAYNESBORO*    CLOUDY    62  55  80 CALM      30.04R
HOT SPRINGS VA CLOUDY    59  43  55 CALM      30.14R
LYNCHBURG      CLOUDY    68  62  81 NW3       30.05R
DANVILLE       CLOUDY    67  64  90 SE3       30.00S
SOUTH BOSTON*  MOCLDY    66  65  96 CALM      30.01R
MARTINSVILLE   CLOUDY    65  63  91 CALM      30.07R
ROANOKE        CLOUDY    66  59  78 CALM      30.06S
BLACKSBURG     CLOUDY    62  58  86 CALM      30.11F
DUBLIN*        CLOUDY    64  57  79 CALM      30.10S
MARION*        CLOUDY    63  60  90 CALM      30.12F
HILLSVILLE*    CLOUDY    62  57  82 CALM      30.10S
RICHLANDS*     FAIR      63  60  90 SW3       30.10S
WISE*          CLOUDY    61  61 100 CALM      30.12R
ABINGDON*      CLOUDY    64  64  99 CALM      30.08F
$$

MDZ021>025-VAZ099-100-300700-
SOUTHERN MARYLAND AND THE DELMARVA PENINSULA

CITY           SKY/WX    TMP DP  RH WIND       PRES   REMARKS
PATUXENT RIVER CLOUDY    64  63  96 SE14      30.06R
BAY BRIDGE APT CLOUDY    61  57  88 SE8       30.08R
LEONARDTOWN    CLOUDY    63  59  88 SE7       30.08R
DOVER          CLOUDY    58  58 100 E7        30.08S
GEORGETOWN     CLOUDY    58  56  93 SE10      30.09S
EASTON         CLOUDY    60  57  88 SE7       30.12R
CAMBRIDGE      CLOUDY    61  57  88 SE8       30.08R
SALISBURY      CLOUDY    58  58 100 SE7       30.08S
OCEAN CITY     CLOUDY    58  57  97 SE8       30.09F
WALLOPS ISLAND CLOUDY    60  60 100 SE13      30.07F
ACCOMACK*      CLOUDY    61  60  96 SE8       30.05F
$$

NCZ012>017-030>032-300700-
NORTH CENTRAL AND EASTERN NORTH CAROLINA

CITY           SKY/WX    TMP DP  RH WIND       PRES   REMARKS
ROANOKE RAPIDS MOCLDY    70  70 100 CALM      30.00F
RALEIGH        CLOUDY    68  68 100 CALM      30.02F
ELIZABETH CITY MOCLDY    73  71  93 SE14      30.03R
AHOSKIE*       NOT AVBL
EDENTON*       DRIZZLE   76  72  89 CALM      30.03S
CURRITUCK*     MOCLDY    70  70 100 SE3       30.04S
KILL DEVIL HLS MOCLDY    69  69 100 SE7       30.02S
MANTEO         MOCLDY    70  68  93 SE10      30.04S
CAPE HATTERAS  CLOUDY    74  70  87 SE7       30.04S
TARBORO*       NOT AVBL
GOLDSBORO      CLOUDY    70  70 100 SE3       30.01R
WASHINGTON     LGT RAIN  68  66  94 CALM      30.01F
GREENVILLE     MOCLDY    70  70 100 SW7       30.04S
NEW BERN       TSTM      70  70 100 SE13G18   30.04S VSB 1
WILMINGTON     CLOUDY    71  70  96 CALM      30.03F
$$

VAZ048-300700-
ELSEWHERE

CITY           SKY/WX    TMP DP  RH WIND       PRES   REMARKS
HARRISBURG PA  DRIZZLE   63  63 100 SE8       30.05S FOG
BALTIMORE      CLOUDY    60  60 100 E9        30.06S FOG
ANNAPOLIS      CLOUDY    63  62  97 E10       30.07R
ANDREWS AFB    CLOUDY    65  62  90 SE10      30.04R
PHILADELPHIA   CLOUDY    57  53  86 E6        30.12S
HENDERSON NC   MOCLDY    65  64  94 S6        30.01F
GREENSBORO     CLOUDY    66  65  96 SW5       30.03S
ROCKY MOUNT    MOCLDY    69  69 100 CALM      30.01S
$$

VAZ100-300700-
MARINE

STATION/POSITION TIME  TEMP    WIND        PRES    WAVE   SWELL
                       AIR SEA DIR/SP/G            HT/PER HT/PER
                 (UTC) (F)     (DEG/KT/KT) (MB)    (FT/S) (FT/S)
CAPE MAY NJ      0536          110/  6/ 10   N/A
LEWES DE         0548          140/  9/ 13   N/A
15NM E FENWICK I 0450   57 58   90/ 10/ 12 1019.4    6/ 8   5/ 8
WACHAPREAGUE VA  0548           90/ 10/ 12   N/A
THOMAS POINT MD  0600   60 67  120/ 13/ 15   N/A
GOOSES REEF MD   0600   63 65  130/ 10/ 12 1018.8    2/ 3
COVE POINT MD    0548          170/ 14/ 17   N/A
SOLOMONS ISLAND  0536          130/ 11/ 16   N/A
BISHOPS HEAD MD  0548          110/ 10/ 13   N/A
PINEY POINT MD   0548          150/ 13/ 14   N/A
POTOMAC MD       0600   65 69  150/ 14/ 16 1016.8    2/ 3
CAMBRIDGE MD     0530   60 72                N/A
LEWISETTA VA     0548          150/  5/  5   N/A
RAPPAHANNOCK LGT 0548          100/ 17/ 18   N/A
STINGRAY PT      0600   64 70  160/ 14/ 17 1017.1    2/ 2
YORK RVR RNG VA  0548          110/ 16/ 18   N/A
YORKTOWN VA      0548          110/ 12/ 14   N/A
JAMESTOWN VA     0600   68 74  100/  8/ 12   N/A     0
DOMINION TERM VA 0548           80/  5/  8   N/A
KIPTOPEKE VA     0548           80/  7/ 10   N/A
CHES BAY BRIDGE  0548          100/ 15/ 17   N/A
CAPE HENRY VA    0548           80/ 12/ 17   N/A
WILLOUBY STN VA  0548           90/  9/ 10   N/A
S CRANEY ISL VA  0548          120/  6/  9   N/A
CAPE HENRY BUOY  0542      64                N/A     3/ 8
1ST LANDING BUOY 0600   66 68              1017.4    2/ 3
CAPE CHARLES BUO 0551      65                N/A     3/ 8
64NM E OF VA BCH 0450   65 63  110/ 10/ 12 1018.3    3/ 8   3/ 8
DUCK PIER NC     0548          130/ 14/ 17   N/A
44100 DUCK FRF   0535      66                N/A     3/ 8
44056 DUCK FRF   0500      69                N/A     3/ 4
OREGON INLET NC  0536          100/  7/ 10   N/A
HATTERAS NC      0548          140/  7/ 10   N/A
DIAMOND SHLS NC  0450   77 76  150/  4/  6 1017.4    2/10   2/10
CAPE LOOKOUT NC  0600   76     240/  7/ 11 1017.3R
$$



USA.gov is the U.S. government's official web portal to all federal, state and local government web resources and services.